Regional Weather Roundup
Issued by NWS Charleston, WV

Home | Current Version | Previous Version | Text Only | Print | Product List | Glossary On
Versions: 1 2 3 4 5 6 7 8 9 10 11 12 13 14 15 16 17 18 19 20 21 22 23 24 25 26 27 28 29 30 31 32 33 34 35 36 37 38 39 40 41 42 43 44 45 46 47 48 49 50
000
ASUS41 KRLX 280510
RWRRLX
West Virginia Regional Weather Roundup
National Weather Service Charleston WV
1200 AM EST WED JAN 28 2015

Note: "fair" indicates few or no clouds below 12,000 feet with no
significant weather and/or obstructions to visibility.

WVZ003-280600-
Northern Panhandle of West Virginia

CITY           SKY/WX    TMP DP  RH WIND       PRES   REMARKS
WHEELING       MOCLDY    14   9  80 NW6       30.15R WCI   5
$$

WVZ009-280600-
Northwest West Virginia

CITY           SKY/WX    TMP DP  RH WIND       PRES   REMARKS
PARKERSBURG    MOCLDY    19  10  68 NW5       30.23R
$$

WVZ006-280600-
Western West Virginia

CITY           SKY/WX    TMP DP  RH WIND       PRES   REMARKS
HUNTINGTON     CLOUDY    22  14  71 N7        30.22R
$$

WVZ015-280600-
West Central West Virginia

CITY           SKY/WX    TMP DP  RH WIND       PRES   REMARKS
CHARLESTON     FLURRIES  22  15  75 W6        30.19R
$$

WVZ022-031-280600-
North Central West Virginia

CITY           SKY/WX    TMP DP  RH WIND       PRES   REMARKS
CLARKSBURG     LGT SNOW  20  16  84 NW6       30.14R FOG
MORGANTOWN     CLOUDY    19  10  68 VRB7      30.14R HAZE    WCI  10
$$

WVZ025-035-042-045-280600-
Southern West Virginia

CITY           SKY/WX    TMP DP  RH WIND       PRES   REMARKS
BECKLEY        FLURRIES  17  12  80 NW9       30.05R WCI   6
LOGAN          FLURRIES  19  16  86 NW5       30.15R
BLUEFIELD      FLURRIES  19  10  68 NW9G21    30.03R WCI   8
LEWISBURG      FLURRIES  20  12  72 NW8       30.04R WCI  10
$$

WVZ047-280600-
Northern Mountains of West Virginia

CITY           SKY/WX    TMP DP  RH WIND       PRES   REMARKS
ELKINS         LGT SNOW  18  14  84 W7        30.07R FOG     WCI   9
$$

WVZ052-280600-
Eastern Panhandle of West Virginia

CITY           SKY/WX    TMP DP  RH WIND       PRES   REMARKS
MARTINSBURG    PTCLDY    25  12  58 NW13      30.04R
PETERSBURG     PTCLDY    23  14  69 CALM      30.07R
$$



USA.gov is the U.S. government's official web portal to all federal, state and local government web resources and services.